User: anonymous
Location: Unspecified
(0.0000°N, 0.0000°E)
Time: 15:43:35
(UTC+02:00)
Language:

Palapa 6 Rocket - Orbit

View from above orbital plane
View from above orbital plane
View from above satellite
View from above satellite

Ground track
Ground track

The orbit data is extracted from the following two-line orbital elements,

1 20571U 90034B   14105.54557008  .00004179  00000-0  60141-3 0  4234
2 20571 022.7445 251.3946 0519792 116.2063 314.7448 14.09163159228218
Epoch (UTC): 15 April 2014 13:05:37
Eccentricity: 0.0519792
inclination: 22.7445°
perigee height: 486 km
apogee height: 1238 km
right ascension of ascending node: 251.3946°
argument of perigee: 116.2063°
revolutions per day: 14.09163159
mean anomaly at epoch: 314.7448°
orbit number at epoch: 22821

The dashed part of the orbit path shows where the satellite is in the earth's shadow,  

DLR